Location: Asheville, NC
(35.6000°N, 82.5500°W)
Time: 19:59:48
(UTC-05:00)

ISS - Pass Details

Date: 09 December 2020
Orbit: 418 x 419 km, 51.6° (Epoch: 17 January)

Event Time Altitude Azimuth Distance (km) Brightness Sun altitude
Rises 19:17:26 0° 292° (WNW) 2,356 0.9 -23.8°
Reaches altitude 10° 19:20:16 10° 266° (W) 1,489 0.1 -24.3°
Maximum altitude 19:22:06 14° 233° (SW) 1,263 -0.6 -24.7°
Drops below altitude 10° 19:23:56 10° 199° (SSW) 1,483 -0.6 -25.1°
Enters shadow 19:25:04 - 185° (S) 1,783 -0.4 -25.3°
